GFSNGP_250_rhum_144.txt.gz
RH
69 79 86 89 87 88 85 70 92 88 87 74 76 100 100 100 100 100 100 100 100 99 58 39 17 5 2 2 2 2 4 5 5 4 3 3 3 3 3 3 3 3 4 4
89 93 89 91 96 99 90 92 83 91 97 72 86 100 100 100 99 100 100 100 100 100 100 96 100 34 18 6 3 4 6 6 7 7 6 4 4 3 3 3 3 4 4 4
80 92 89 82 77 86 86 90 86 81 84 87 81 87 96 100 100 100 100 100 100 100 100 100 100 97 81 50 22 14 6 8 10 9 8 8 7 6 7 7 7 7 8 9
69 78 90 93 81 81 78 90 88 80 82 64 86 88 88 100 100 100 100 100 100 100 100 100 100 100 100 98 86 65 27 42 42 17 13 10 10 11 12 12 13 16 17 18
43 66 86 96 97 96 95 93 90 91 95 74 59 78 98 88 100 100 100 87 100 100 100 100 100 100 100 100 100 100 100 100 93 78 51 39 26 20 18 18 22 22 26 26
64 41 51 80 90 96 90 96 78 89 87 83 75 73 86 79 89 88 95 99 100 100 100 100 100 100 100 100 100 100 100 100 100 100 100 100 100 93 85 65 68 46 41 33
76 84 63 46 42 52 69 77 94 87 78 85 91 81 91 100 91 97 100 100 100 100 100 100 100 100 100 100 100 100 100 100 100 100 100 100 100 100 100 100 100 77 89 88
38 74 87 90 68 47 44 55 58 64 68 72 65 74 87 88 100 100 100 100 100 94 100 96 100 100 100 100 100 100 100 100 100 100 100 100 100 100 100 100 100 100 100 100
42 26 44 69 89 93 73 50 46 47 54 59 63 55 74 85 90 84 90 100 94 100 100 93 87 100 100 100 100 100 100 100 100 100 100 100 100 100 100 100 100 100 100 100
36 39 33 30 52 59 84 94 72 53 46 45 47 58 55 64 71 68 70 82 92 100 97 100 100 89 78 97 88 100 100 100 100 100 100 100 100 100 100 100 100 100 100 100
47 33 29 33 25 26 30 61 84 82 61 51 47 46 52 68 68 58 55 59 70 84 98 80 100 100 100 90 100 100 89 100 100 100 100 100 100 100 100 100 100 100 100 100
89 55 36 19 26 23 18 24 27 64 87 73 52 47 42 46 65 76 79 79 78 76 87 82 85 100 100 100 99 92 100 100 100 100 91 98 100 100 100 100 100 100 100 100
68 87 74 38 19 20 22 18 17 24 50 76 75 50 46 44 43 48 60 84 82 77 76 85 87 76 88 98 100 100 98 88 82 85 87 96 77 74 72 84 89 91 97 100
46 60 82 63 44 23 19 21 19 15 16 27 53 81 64 45 45 46 45 48 55 51 52 59 71 85 93 87 89 90 96 96 99 100 100 100 100 98 94 77 81 85 86 83
58 42 60 79 53 84 52 23 18 20 16 15 20 50 67 75 57 44 45 47 47 49 50 49 50 54 62 75 93 94 95 100 98 92 89 88 86 90 92 85 76 65 53 49
68 46 40 36 51 38 48 99 58 26 24 19 14 14 24 56 73 71 52 44 44 47 48 48 51 52 55 57 56 57 56 54 53 54 53 52 50 49 48 47 47 47 46 45
25 35 35 44 29 27 28 29 41 56 50 36 27 16 14 14 23 42 66 56 50 45 44 47 49 50 50 51 52 53 53 54 56 55 54 52 50 50 50 48 47 50 52 51
47 26 36 32 21 21 18 23 25 29 28 34 41 28 18 13 14 17 28 40 64 51 45 42 42 43 45 46 47 47 48 49 54 56 58 56 53 52 52 53 53 51 46 45
87 60 32 36 33 29 16 16 19 21 24 28 23 26 28 20 13 12 12 14 18 48 59 56 45 40 40 42 46 49 51 50 51 53 55 56 57 58 57 59 59 56 56 58
98 92 42 54 63 44 24 18 15 15 22 24 23 23 18 21 19 14 11 11 12 13 20 53 64 63 55 50 50 53 59 64 65 65 63 61 64 65 67 67 65 65 66 69
100 100 57 78 94 45 35 25 21 15 15 24 22 19 19 15 14 12 11 9 9 8 9 10 35 60 62 61 61 61 66 67 68 73 74 73 74 73 71 70 73 72 73 79
100 99 93 59 71 53 31 26 26 17 16 20 22 16 17 17 12 11 9 8 8 8 8 8 8 15 50 61 63 63 64 68 74 74 75 80 85 84 82 81 78 77 83 83
56 56 66 62 56 56 45 24 24 21 20 21 20 16 14 13 13 11 10 7 7 8 8 8 8 8 14 44 64 65 66 68 74 85 92 96 98 96 97 95 96 96 91 97
37 46 88 66 45 42 33 24 22 19 18 21 21 17 14 11 11 9 8 7 6 7 7 7 7 7 7 11 36 66 73 76 82 90 97 100 100 100 100 99 97 96 99 100
33 53 55 47 42 34 19 17 19 18 15 17 17 15 10 10 10 8 7 6 5 6 6 6 6 6 6 7 14 43 65 85 93 96 100 100 100 100 100 98 96 99 100 98
55 75 28 24 23 22 19 18 15 14 14 15 14 10 8 8 8 7 6 5 4 4 5 5 5 5 5 6 7 20 54 77 95 100 100 100 100 100 100 98 99 100 100 99
34 41 24 19 17 15 15 14 13 14 12 9 9 8 8 7 6 5 4 4 4 4 4 4 4 5 5 5 6 11 32 76 93 100 100 100 100 100 100 100 100 100 100 100

GFSNGP_250_rhum_147.txt.gz
RH
77 85 96 100 97 69 81 77 84 98 98 82 98 97 96 100 100 100 100 100 97 95 97 100 92 76 44 12 4 3 3 3 3 2 2 2 2 2 2 2 2 2 3 3
70 78 87 97 87 100 82 84 96 92 90 76 100 94 92 87 100 100 100 100 100 100 100 100 100 100 100 57 41 13 7 7 5 4 3 3 2 2 3 3 3 3 3 4
50 60 80 88 82 83 91 96 97 94 82 78 73 84 95 94 86 89 100 100 97 100 100 100 100 100 100 100 98 68 31 13 11 9 6 5 5 4 4 4 4 4 5 5
59 47 50 57 73 76 79 86 97 99 96 95 80 79 88 96 85 85 100 97 83 100 100 100 100 100 100 100 100 100 95 78 32 14 13 12 13 13 12 9 7 7 7 8
47 76 70 59 48 50 49 54 63 76 93 100 100 93 83 79 77 97 100 89 92 88 100 100 100 100 100 100 100 100 100 100 99 76 25 16 18 21 21 19 19 18 18 22
28 20 49 80 81 70 51 47 47 50 53 63 72 84 91 96 76 86 100 100 100 76 93 100 92 100 100 100 100 100 100 100 100 100 100 98 66 36 25 31 35 44 37 36
51 49 33 21 34 57 75 73 49 39 41 51 54 57 63 72 98 82 76 100 100 90 87 87 98 100 100 100 100 100 100 100 100 100 100 100 100 100 99 93 100 100 100 94
87 67 54 47 34 23 26 52 74 73 53 42 42 44 50 50 63 89 96 72 100 95 99 76 80 99 97 100 100 100 100 100 100 100 100 100 100 100 100 100 100 100 100 100
56 82 65 35 42 38 26 21 20 47 73 75 57 43 38 41 49 50 63 65 68 100 100 87 84 94 100 100 100 100 100 100 100 100 100 100 100 100 100 100 100 100 100 100
32 45 85 86 56 38 36 28 23 17 18 45 70 74 55 40 42 56 55 53 57 62 84 100 91 91 83 90 100 100 100 100 100 100 100 98 100 100 100 100 100 100 100 100
60 43 47 67 70 96 58 32 27 21 20 15 17 48 74 79 53 40 50 60 52 50 56 61 82 100 90 81 79 100 100 100 98 100 100 100 100 100 100 100 100 100 99 100
92 67 52 35 33 64 86 75 48 27 17 22 19 18 34 75 86 72 50 43 59 69 65 54 56 64 94 97 98 65 80 100 100 100 100 100 100 100 100 100 100 100 100 100
92 89 94 71 35 37 54 71 53 48 28 23 28 25 18 18 37 72 80 56 46 46 62 79 82 72 64 65 91 96 76 81 96 97 86 92 100 100 93 100 100 100 100 100
98 98 100 86 66 49 45 45 46 57 66 27 25 31 32 23 18 21 39 65 69 55 49 51 59 54 62 79 76 83 80 74 83 93 100 100 96 91 83 97 99 99 100 100
100 98 89 90 95 89 39 41 45 39 48 50 58 58 32 21 25 23 18 23 49 69 70 54 48 51 51 54 66 87 79 88 84 79 80 87 99 100 96 85 88 87 87 86
100 80 83 86 78 84 73 67 52 36 30 35 36 44 56 49 34 20 22 24 20 19 43 59 48 45 45 48 50 50 60 82 82 74 78 84 85 84 87 90 96 93 86 78
100 100 97 96 79 93 64 74 62 45 35 30 20 24 31 38 41 36 26 22 20 19 18 18 37 54 47 45 47 50 51 50 52 63 72 68 60 56 58 58 57 55 53 52
100 100 96 81 70 84 65 63 74 47 40 34 38 24 23 21 29 33 36 37 33 24 19 15 13 14 40 47 41 41 47 52 53 53 55 56 56 55 55 56 54 53 53 53
100 99 96 80 84 74 52 44 44 54 42 27 25 24 16 16 18 20 24 27 27 30 22 19 15 12 11 13 38 46 41 41 49 50 49 50 50 51 51 52 54 56 56 56
96 79 84 99 45 53 60 48 26 33 30 33 37 21 19 18 16 16 17 20 18 17 18 17 17 14 11 10 10 12 36 44 38 38 44 45 46 45 46 47 47 47 50 56
73 85 72 74 51 71 56 52 33 20 32 47 33 35 33 26 19 19 16 16 15 15 12 12 12 12 10 9 9 9 10 11 34 43 36 36 39 40 42 44 47 50 51 54
97 73 82 84 94 99 94 61 49 33 27 31 30 46 39 26 29 25 17 14 15 15 12 10 10 10 8 8 8 8 8 8 9 11 32 46 44 43 43 44 48 53 59 65
51 62 87 100 100 91 79 71 51 39 43 35 44 48 27 32 21 19 17 16 14 13 12 10 10 8 6 6 7 7 7 7 7 8 8 13 34 50 58 60 64 68 72 74
29 33 70 98 100 100 80 72 44 46 43 29 21 26 22 21 18 15 15 14 13 11 11 9 8 6 6 6 6 6 7 6 6 7 8 9 10 29 58 68 69 75 84 92
26 31 54 52 89 89 92 63 50 31 36 32 19 19 18 17 14 14 15 12 11 11 10 8 7 6 5 5 5 5 6 6 6 6 7 8 9 14 50 79 80 89 93 95
21 26 48 40 58 74 78 59 33 22 22 17 17 17 17 15 13 13 12 10 9 8 8 7 5 5 4 4 4 5 4 4 5 6 7 8 9 11 42 80 91 95 98 100
14 16 20 26 44 38 33 24 17 24 15 14 14 16 15 13 12 11 10 8 7 7 6 5 4 4 3 4 4 4 4 4 5 5 6 7 8 10 39 77 81 86 88 94

GFSNGP_250_rhum_150.txt.gz
RH
49 68 80 81 90 89 92 92 95 94 100 98 87 100 100 100 100 100 100 100 100 97 100 100 90 84 90 80 70 42 12 9 5 4 3 3 2 2 1 2 2 2 2 2
52 44 46 67 65 74 100 84 91 98 95 80 85 96 100 95 100 100 100 100 98 87 100 100 96 96 93 100 96 99 55 14 10 7 4 3 2 2 2 2 2 2 3 3
32 45 54 51 43 41 52 63 63 61 65 78 79 88 92 97 89 95 100 81 96 100 96 100 94 100 78 100 100 100 100 47 16 14 10 5 4 3 3 3 3 3 4 4
40 33 32 27 42 58 48 44 49 55 55 50 53 69 85 81 97 92 99 85 86 97 84 100 100 100 83 100 100 100 100 100 56 21 20 17 11 7 5 5 5 5 6 6
49 43 43 42 40 36 28 53 61 46 43 47 55 55 53 63 70 82 91 94 96 69 81 98 100 100 81 100 100 100 100 100 100 82 42 33 29 24 21 15 12 8 9 8
81 58 48 50 38 32 36 29 24 28 58 57 42 45 50 52 60 61 67 94 91 84 66 81 97 100 100 100 100 100 100 100 100 100 100 88 63 50 43 42 32 38 41 30
66 73 71 62 59 40 26 26 26 26 21 21 55 62 44 40 47 51 50 55 61 83 89 69 73 97 98 98 99 100 100 93 100 100 100 100 100 100 90 66 73 72 66 76
80 70 76 64 71 83 52 32 21 25 25 22 18 23 58 70 48 41 47 49 51 52 74 74 63 72 88 100 100 100 100 100 100 98 100 100 100 100 100 100 99 100 100 100
77 82 66 70 65 58 65 96 50 25 19 18 24 22 18 22 67 68 48 42 50 62 55 71 62 73 84 89 100 98 99 100 100 100 100 99 100 98 100 100 100 100 100 100
70 86 89 72 77 75 62 73 71 75 37 22 17 18 26 24 20 34 76 72 47 45 56 58 56 70 58 85 100 100 95 100 100 100 100 100 100 100 99 100 99 100 100 100
84 84 86 88 76 68 78 55 54 57 77 59 48 28 19 20 26 24 20 50 88 63 47 53 55 56 64 57 70 77 100 96 100 98 84 100 100 100 100 100 100 100 100 99
95 82 83 83 89 74 72 74 64 51 44 63 75 54 62 39 18 20 22 22 19 73 95 63 48 52 66 57 56 69 64 86 100 100 100 100 100 100 100 100 100 100 100 98
92 94 87 89 92 99 93 71 75 69 59 37 57 52 59 58 53 38 26 20 30 25 24 78 90 57 46 47 67 66 71 73 61 77 96 96 91 97 100 100 100 92 100 100
86 99 99 96 100 100 100 100 100 86 77 74 45 34 36 48 61 63 51 30 32 32 32 22 21 58 94 69 49 47 50 61 69 77 66 69 95 92 74 85 100 100 100 100
100 100 100 100 100 100 100 98 100 100 75 90 84 63 52 42 46 43 54 58 51 34 30 33 33 27 21 30 70 64 49 48 50 65 70 82 77 66 73 86 90 94 98 100
100 100 100 100 100 100 94 86 100 97 86 75 80 87 94 80 51 32 33 40 52 50 48 62 56 47 28 23 18 18 50 52 46 48 50 61 71 83 92 82 72 72 78 84
100 100 100 100 100 100 96 79 83 69 81 95 64 67 93 74 67 54 56 58 31 33 37 45 46 42 43 34 24 15 15 15 41 53 44 46 50 54 66 74 80 83 78 74
99 100 100 100 100 100 100 100 77 60 65 74 70 61 66 71 84 77 68 58 37 24 28 31 26 28 35 36 35 24 17 14 14 14 33 41 42 44 44 48 55 69 72 70
97 100 83 100 100 100 100 100 72 65 48 53 48 66 78 75 63 63 68 68 41 37 29 27 27 25 18 20 23 23 21 17 14 12 13 14 28 36 38 42 44 47 48 53
86 95 67 66 79 100 100 100 92 78 67 41 45 36 64 88 85 64 52 47 32 33 32 28 28 26 18 15 15 16 17 17 17 16 12 10 12 13 24 32 37 42 43 42
60 69 42 48 50 51 93 97 100 72 55 41 34 58 52 74 74 59 48 36 39 33 28 30 28 21 17 16 15 14 12 13 14 13 11 10 8 9 10 10 19 26 36 40
38 43 33 29 36 30 38 60 61 59 35 47 46 34 32 56 71 56 41 27 27 29 28 25 20 20 19 15 14 13 13 12 11 10 9 8 8 7 7 9 9 10 18 28
30 29 23 21 23 23 24 28 28 30 25 24 32 32 24 25 26 30 22 24 21 19 24 21 20 19 16 13 13 12 10 10 9 7 7 7 7 8 7 7 8 8 9 12
19 19 15 16 17 19 20 21 22 19 20 19 20 32 19 18 18 20 20 21 20 21 20 21 18 15 12 12 11 11 9 7 6 6 6 6 7 7 7 7 6 7 7 8
12 13 13 13 13 17 19 19 19 20 15 16 17 19 18 17 18 17 17 17 17 18 17 16 14 12 11 10 9 7 6 6 5 5 5 5 6 6 6 6 6 6 7 8
11 11 12 12 12 13 14 15 15 15 15 14 14 15 15 16 14 15 15 16 16 16 16 13 12 11 10 8 7 6 5 4 4 4 4 4 4 4 4 5 5 6 7 8
9 9 9 10 10 10 11 11 11 13 13 13 14 15 14 14 13 14 13 13 14 13 11 10 10 9 8 7 6 5 4 4 4 4 4 4 4 4 4 4 5 5 6 6

GFSNGP_250_rhum_153.txt.gz
RH
25 29 45 47 47 47 49 60 64 66 75 80 91 97 100 100 100 100 100 100 94 100 92 94 100 94 77 88 94 84 61 50 24 19 16 7 5 4 3 2 2 2 2 2
52 43 35 31 33 52 48 46 48 55 60 55 54 50 54 65 80 94 84 100 100 100 100 100 100 100 75 83 93 96 72 79 40 30 26 14 7 4 3 3 2 2 2 2
72 60 54 45 47 33 23 33 53 55 49 46 50 54 54 56 51 57 68 84 90 95 81 89 100 100 87 80 78 91 78 95 69 48 37 30 17 8 6 4 4 3 3 3
52 58 83 78 50 51 45 30 21 20 30 55 55 43 40 54 54 53 57 60 72 75 76 70 90 94 99 100 85 88 86 94 100 93 79 68 43 26 13 8 6 6 5 5
50 46 48 61 66 64 52 39 38 28 21 20 22 41 59 42 41 45 55 60 61 69 68 78 85 79 100 100 100 100 97 92 100 100 100 82 80 78 43 30 17 17 11 10
54 48 51 48 64 70 88 71 48 29 30 22 17 17 17 45 64 48 45 49 56 57 57 63 58 58 81 100 100 100 100 94 100 94 100 100 95 95 98 86 78 66 61 46
66 73 67 56 56 56 60 79 93 72 35 26 28 21 16 17 17 39 64 51 42 47 52 62 61 58 63 78 100 100 100 98 89 100 99 100 100 100 92 98 100 93 85 81
70 68 74 65 64 53 57 55 54 76 84 71 42 28 24 17 20 22 18 36 66 55 43 49 60 72 64 58 69 87 100 100 93 78 95 100 99 100 100 100 99 85 98 95
63 59 68 64 63 67 71 62 62 55 60 70 84 64 40 24 22 21 20 21 18 19 54 52 44 56 63 64 72 75 100 100 100 90 100 86 96 100 98 100 100 100 100 100
61 54 61 72 79 70 75 76 79 66 64 54 70 73 88 79 59 34 24 20 20 20 19 17 42 45 43 49 48 61 67 89 100 99 97 92 92 95 100 100 94 96 100 96
78 61 75 76 90 97 79 79 82 82 80 73 59 68 70 66 79 86 68 33 19 18 20 22 22 24 44 46 43 47 53 56 82 100 98 100 100 100 97 99 100 100 100 95
86 71 82 80 92 97 90 90 88 91 88 82 78 70 66 51 67 68 79 98 71 43 26 19 17 23 25 29 50 51 48 50 49 61 84 97 98 99 98 86 100 100 97 100
80 78 99 81 91 87 100 100 99 83 97 100 76 83 83 67 58 55 61 67 76 76 81 61 45 24 21 27 26 26 41 52 45 49 52 64 79 94 99 100 89 91 96 100
65 72 95 76 80 83 100 100 100 100 100 100 100 100 100 86 70 60 59 45 49 65 60 80 83 80 67 46 25 20 23 23 22 41 46 44 50 56 60 83 98 95 90 95
100 100 89 94 100 100 93 100 100 100 100 100 98 100 100 100 100 96 79 61 53 50 51 68 66 63 70 61 53 46 33 24 19 21 22 34 47 44 42 50 55 65 75 85
100 98 82 100 100 100 100 96 98 100 100 100 100 100 100 100 100 96 95 89 68 44 49 54 54 53 64 46 39 47 43 42 43 32 20 15 19 26 41 48 42 46 53 58
100 100 100 100 100 100 100 100 100 100 100 100 100 88 100 98 98 100 97 88 72 52 46 73 63 59 44 48 45 44 40 28 28 30 31 30 19 13 16 20 36 48 46 41
62 72 94 100 100 100 100 100 100 100 100 100 100 100 75 98 98 93 98 94 62 71 44 70 65 72 68 54 50 42 40 35 46 32 24 20 19 19 14 14 16 17 22 36
64 79 87 97 100 100 100 100 100 99 100 98 100 100 93 67 63 67 73 78 58 51 55 47 44 42 54 55 51 46 51 46 35 23 20 20 18 16 15 16 13 12 14 14
85 98 84 79 80 85 98 96 98 93 99 100 100 86 71 58 40 39 51 61 77 59 44 33 35 40 31 41 51 51 46 38 35 25 21 18 15 13 13 13 14 16 15 11
56 64 58 51 54 69 66 72 63 64 66 54 44 37 32 34 35 25 29 31 28 36 33 26 24 28 31 39 40 36 34 26 22 18 16 15 13 12 12 11 12 12 11 11
44 41 39 21 25 46 47 54 56 46 36 31 26 18 19 26 26 21 21 24 22 24 23 18 16 18 21 23 27 32 25 21 18 17 16 15 12 11 11 10 10 10 9 9
26 17 17 15 17 30 33 23 26 35 23 16 15 15 17 19 22 18 16 19 21 20 21 19 16 15 16 19 21 23 22 19 16 16 15 12 11 10 10 8 7 8 7 7
10 9 10 12 13 15 14 14 13 14 14 13 12 14 14 15 18 16 15 19 22 17 14 14 14 14 14 15 18 18 15 14 14 13 12 11 10 10 8 8 6 6 6 6
7 8 8 10 11 11 9 9 10 11 11 11 12 11 11 13 13 13 13 15 14 13 12 13 13 13 14 15 15 13 13 13 12 11 10 9 8 8 7 6 5 4 5 5
7 8 8 8 9 9 8 8 8 9 8 9 9 9 8 9 10 10 10 10 10 10 11 11 11 11 11 12 11 12 11 11 10 9 8 8 8 6 6 5 5 4 4 4
7 6 7 7 7 6 6 7 7 6 6 6 6 6 6 6 6 6 7 7 8 9 8 9 9 10 11 11 10 9 9 8 8 7 7 7 6 5 5 4 4 4 4 4

GFSNGP_250_rhum_156.txt.gz
RH
50 46 42 38 35 29 24 20 25 35 41 43 43 46 52 49 51 53 62 68 77 80 84 100 99 98 85 96 95 83 100 100 86 72 78 69 42 28 12 6 4 3 3 3
49 52 50 41 41 37 39 41 36 29 25 24 34 43 42 42 44 51 56 58 62 62 74 76 98 100 84 86 100 91 99 100 100 100 98 88 62 47 29 11 7 5 4 3
49 52 56 58 52 48 49 44 41 39 38 24 20 20 20 40 44 39 38 40 43 48 58 61 65 71 75 82 94 100 100 74 99 93 99 100 92 74 54 35 15 8 6 5
49 49 52 58 58 62 65 62 51 47 45 37 32 24 20 18 21 41 54 52 39 38 45 52 57 54 63 67 82 96 100 100 80 98 96 100 100 96 96 68 47 26 16 10
51 52 48 56 60 58 53 59 63 63 40 40 41 31 32 23 21 22 27 40 49 53 45 40 44 49 53 62 75 75 79 100 100 84 74 99 89 87 100 91 56 61 40 34
51 59 64 52 56 65 66 62 56 56 67 55 31 37 30 34 32 28 24 25 22 22 30 47 46 39 43 55 58 52 63 97 100 100 97 77 74 80 91 100 100 72 66 70
50 50 60 62 66 63 72 66 67 64 56 62 67 64 60 41 30 26 27 25 25 26 26 28 38 49 46 43 52 52 56 72 91 100 100 99 97 73 80 81 98 100 89 79
59 53 54 55 56 68 58 65 64 61 61 68 59 61 63 68 69 66 41 32 27 25 22 22 21 23 30 45 43 44 47 50 58 81 97 100 100 100 96 74 78 82 84 76
77 74 71 78 59 63 64 61 64 68 65 59 68 66 64 63 58 69 74 63 54 43 24 22 21 20 22 27 38 45 43 43 48 55 70 96 100 89 100 99 100 84 75 89
88 88 71 82 82 85 75 83 73 64 74 73 65 58 61 71 66 54 54 62 66 63 72 37 24 21 24 27 25 28 38 45 45 42 45 52 78 92 95 81 85 97 100 100
85 78 88 76 77 85 89 98 100 97 80 86 85 79 80 61 63 68 59 52 50 55 54 64 68 63 43 28 20 24 24 26 31 40 45 46 46 48 78 90 91 84 92 100
87 66 74 95 80 93 96 98 100 100 98 99 98 88 84 79 94 70 67 71 59 54 48 55 58 59 68 59 68 47 24 22 22 21 23 27 42 54 54 54 78 94 96 78
95 74 87 82 86 93 100 100 100 100 94 100 100 100 100 100 94 92 87 70 64 62 60 62 49 48 50 63 55 51 54 73 47 31 19 15 18 22 28 50 55 54 65 92
70 83 88 81 100 99 100 100 100 100 100 100 100 100 100 100 100 100 100 100 100 84 55 49 58 52 46 47 52 59 64 66 68 62 55 36 20 16 18 20 22 37 51 53
90 80 99 100 94 95 100 100 100 100 100 100 100 100 100 100 100 100 100 100 100 100 100 99 61 49 63 51 44 37 38 58 71 73 56 35 34 34 25 18 15 18 19 21
88 85 84 98 100 100 100 100 100 100 100 100 100 100 100 100 100 100 100 100 100 100 99 100 100 69 47 44 57 36 40 44 40 57 67 64 49 27 22 28 26 23 17 17
89 88 97 100 100 100 100 100 100 100 100 100 100 100 100 100 100 100 100 100 100 100 100 100 100 100 78 43 32 65 58 44 46 43 48 64 51 48 34 25 23 24 18 20
100 100 100 100 100 100 100 100 100 100 100 100 100 100 100 100 100 100 94 100 100 100 100 100 100 100 65 64 51 35 44 50 46 47 48 45 54 59 53 32 25 22 19 17
100 99 100 100 100 100 100 100 100 98 98 100 100 100 100 100 81 68 45 65 99 100 100 100 85 64 39 39 42 34 30 37 36 38 36 32 39 44 44 36 32 22 18 17
82 92 97 100 99 100 95 95 92 79 72 66 71 68 70 63 41 25 20 28 65 82 59 71 50 32 27 26 30 30 25 24 23 23 23 22 24 29 35 30 21 18 17 16
64 58 59 71 88 87 77 62 63 60 54 42 30 39 39 40 30 17 13 17 26 24 23 24 18 19 19 20 23 23 20 20 20 18 18 18 18 18 18 18 16 15 15 14
45 45 50 55 40 24 26 26 28 23 20 18 16 21 20 14 12 12 13 14 18 18 17 16 15 14 15 18 17 17 17 17 16 16 15 15 16 16 16 14 12 12 12 13
29 32 27 28 22 16 16 14 13 12 12 12 11 9 10 10 10 10 11 11 13 14 13 14 14 13 14 14 14 14 14 14 15 15 14 14 12 12 12 12 12 11 12 11
16 16 13 12 12 11 11 12 11 9 8 8 8 7 7 8 9 9 9 8 9 10 10 11 11 11 11 12 12 12 12 14 14 13 13 12 11 11 11 11 11 11 10 9
10 10 10 10 9 9 10 10 8 7 7 7 7 6 6 7 6 6 7 8 7 7 8 9 9 8 8 9 10 9 10 11 12 12 11 11 11 11 11 10 9 9 8 8
9 9 9 8 7 7 7 7 6 6 6 6 6 5 6 6 5 6 6 6 6 6 6 7 7 7 7 8 8 8 9 9 9 10 10 9 9 9 9 8 8 8 8 7
8 8 7 6 6 5 4 5 5 5 5 5 4 4 4 4 4 4 4 4 5 4 4 4 5 5 6 6 6 8 8 7 7 7 8 8 8 8 8 7 7 7 6 6